Theta_e
297 298 299 299 299 299 299 300 299 299 299 299 300 300 300 301 300 302 303 302 304 302 301 301 302 300 300 300 298 299 297 298
297 298 298 298 298 298 299 300 299 299 298 296 296 296 298 299 300 301 302 302 303 302 301 301 302 300 300 300 298 298 297 298
297 297 297 298 299 298 298 299 299 300 299 298 297 297 298 299 301 301 301 302 302 303 301 301 301 301 300 300 299 298 297 297
297 297 297 296 296 298 298 299 300 300 300 299 299 299 300 300 300 300 302 302 302 302 302 302 301 301 299 299 300 298 297 297
298 298 296 295 297 298 298 299 300 301 301 299 298 297 296 298 299 301 303 305 305 305 304 303 302 302 301 301 303 300 300 298
297 298 298 297 297 298 298 299 300 301 300 300 298 297 298 300 301 301 302 303 302 303 302 301 300 301 300 300 299 301 301 298
298 299 298 297 296 297 298 299 300 301 300 300 299 300 300 299 299 299 299 300 298 298 298 297 297 297 296 297 296 297 298 298
298 297 297 298 297 297 297 299 299 300 302 302 302 300 299 298 297 296 296 296 294 294 294 294 294 294 294 294 294 294 294 294
298 299 299 300 299 299 299 299 300 301 301 300 300 299 298 297 295 294 293 294 293 293 293 293 293 293 293 292 292 292 291 291
298 299 300 300 299 300 299 300 300 301 299 298 297 296 294 293 293 292 292 292 293 292 292 292 292 292 292 291 290 290 289 288
298 299 300 300 299 299 300 300 301 300 298 296 296 294 294 293 292 290 290 291 292 291 291 291 291 291 291 290 289 290 288 288
297 299 299 298 298 297 296 297 297 296 295 294 294 293 293 292 291 290 290 290 291 290 290 290 290 290 290 288 288 289 288 287
295 297 297 297 294 293 292 292 293 293 293 293 292 292 291 290 290 290 290 289 291 290 290 290 290 289 288 287 287 287 286 285
296 296 295 293 292 291 291 291 291 291 291 291 291 290 290 288 288 289 289 289 289 289 289 289 289 288 286 287 286 286 285 285
295 293 291 291 291 291 291 291 291 291 291 290 289 289 288 287 288 288 288 288 288 288 288 288 287 286 286 286 286 284 284 285
292 290 290 290 290 291 291 290 290 290 290 289 288 288 288 287 287 288 287 288 289 288 287 286 285 285 286 285 285 284 282 283
291 290 290 290 290 289 290 289 290 290 288 288 289 289 288 288 288 287 287 286 286 285 285 284 284 286 288 288 287 282 282 282
290 290 290 289 289 290 289 289 290 289 289 289 289 289 288 288 287 286 285 284 284 283 283 283 283 283 287 288 287 283 281 281
290 289 289 289 289 289 290 290 290 290 289 288 289 288 287 286 285 285 284 283 283 282 282 282 282 283 287 287 287 282 281 280
Wind_Speed
8 8 7 7 5 3 2 2 3 5 4 3 2 2 2 3 3 3 3 4 5 4 4 5 4 4 5 4 4 4 2 6
7 8 7 6 4 5 4 4 2 2 2 2 1 0 1 1 2 5 5 3 4 5 3 4 5 5 4 4 3 5 4 7
8 8 7 8 7 6 4 3 3 2 2 2 2 2 2 2 2 4 5 4 4 4 5 6 6 5 6 5 5 4 3 5
13 11 10 8 8 8 7 6 6 3 5 3 2 2 1 2 3 3 5 6 6 6 6 5 5 4 4 5 5 4 3 3
12 12 8 9 9 8 7 7 7 5 5 3 3 2 2 1 2 2 5 10 11 10 8 8 8 6 9 6 6 3 3 4
16 16 14 9 8 8 8 8 7 5 4 4 4 3 1 2 3 6 7 7 10 10 9 9 9 7 8 8 9 9 5 3
14 12 8 7 7 7 7 8 7 4 5 4 5 7 5 5 5 5 4 4 5 8 7 6 6 6 7 6 6 7 7 7
15 13 12 10 9 9 7 7 5 5 6 7 7 8 8 7 5 4 4 4 4 6 6 7 5 5 6 6 6 6 6 5
17 17 15 14 12 9 8 7 5 7 8 8 6 7 5 4 5 4 4 3 3 4 5 5 6 6 6 5 3 3 4 4
17 15 14 13 10 10 8 7 7 7 7 7 6 6 6 5 6 5 4 3 3 5 5 5 5 5 5 5 4 4 4 4
14 14 14 11 6 6 8 7 9 8 7 6 5 6 6 6 5 6 5 3 4 5 4 4 5 5 6 5 4 4 5 4
12 12 8 8 8 9 9 9 9 7 6 5 5 4 6 5 5 4 4 4 4 4 4 4 5 5 5 5 6 6 5 6
7 10 13 12 11 10 9 7 7 6 5 5 5 5 6 5 5 4 4 3 2 3 3 4 4 5 6 5 5 5 5 5
12 12 13 13 12 10 8 7 6 5 6 5 5 5 5 5 4 3 2 2 3 3 3 3 4 5 4 3 3 5 5 5
12 12 12 12 10 9 7 6 5 4 5 4 4 4 4 3 3 1 1 3 4 4 3 3 4 4 3 2 4 4 5 5
13 13 12 11 9 7 6 6 5 3 4 4 3 5 4 4 3 2 3 4 5 5 4 4 4 4 4 3 3 4 5 6
13 13 12 10 9 7 6 5 4 3 3 2 4 5 4 3 3 4 4 6 5 5 6 5 6 4 7 7 4 4 5 6
13 11 9 8 7 6 5 4 3 1 1 0 4 3 3 5 5 5 6 7 4 6 6 6 6 6 11 9 9 4 5 6
11 9 8 7 5 4 3 2 3 3 2 2 2 4 5 6 6 6 6 4 6 5 6 7 6 7 11 10 11 5 6 8
Wind_Direction
191 187 188 183 188 183 139 93 97 100 97 87 40 12 5 357 357 8 32 17 29 57 43 37 31 35 23 12 13 355 356 343
192 193 182 189 198 181 183 123 110 135 123 133 87 271 315 302 319 331 344 2 11 12 25 23 16 36 15 17 351 359 345 350
198 197 190 193 188 187 160 144 130 107 124 151 153 177 228 265 313 322 318 331 341 346 3 3 5 360 3 10 28 347 344 3
195 194 198 196 189 187 176 172 161 146 135 119 82 40 7 12 19 346 350 347 354 6 3 360 356 3 347 343 347 11 341 327
195 191 197 196 203 185 177 182 174 178 157 127 135 140 69 343 23 349 40 43 40 37 31 26 24 17 18 353 345 321 336 321
191 193 194 198 181 184 190 189 193 185 163 105 92 79 87 52 47 46 38 41 41 34 31 28 27 25 18 15 13 9 357 316
196 194 179 190 185 185 190 190 205 144 110 110 108 105 92 75 50 48 33 34 31 29 31 30 31 26 17 2 3 18 15 29
186 178 184 185 186 194 192 196 196 142 112 106 109 109 96 87 79 71 58 46 31 17 22 24 22 12 8 3 11 24 21 34
188 186 185 185 189 190 188 177 155 139 123 113 105 102 103 102 100 92 69 72 59 25 31 30 19 11 7 9 11 9 25 20
186 180 182 181 183 190 161 140 120 113 111 109 105 106 109 114 103 100 90 65 65 47 44 29 4 5 1 358 352 346 358 350
179 176 175 173 156 120 114 115 119 112 109 107 111 124 122 113 108 91 89 78 66 57 32 16 2 357 355 352 333 305 358 333
172 165 143 111 103 104 101 101 110 102 102 110 122 113 94 95 95 90 89 75 65 42 17 5 3 357 343 345 345 11 359 336
125 120 114 110 107 103 101 95 100 115 124 124 111 98 100 105 94 89 71 55 23 0 357 5 359 346 344 352 12 355 345 330
111 108 111 113 108 108 109 112 120 131 121 102 81 106 116 107 100 89 58 358 305 319 343 342 332 331 343 356 338 329 322 308
111 106 109 110 112 117 114 110 114 109 94 92 108 138 135 131 135 143 310 302 294 289 299 290 314 313 289 310 308 319 314 316
114 115 115 116 114 109 105 107 108 101 104 110 139 157 157 170 192 255 293 306 279 280 279 280 294 281 279 289 284 287 287 284
120 120 120 117 117 118 111 116 117 114 106 129 170 173 184 211 248 272 284 282 280 267 255 268 275 268 273 278 287 256 287 284
125 122 119 121 120 121 125 133 138 116 17 275 171 191 235 250 264 276 276 277 259 262 258 272 269 273 263 273 287 288 279 271
119 115 110 110 119 116 114 77 46 20 23 117 227 255 269 278 284 280 288 281 275 265 279 268 268 272 261 278 282 276 265 264